RH
43 47 53 58 62 64 66 67 69 71 73 74 75 77 78 81 83 85 86 85 84 83 82 82 82 82 82 82 82 83 85 86 86 86 85 85 84 84 83 82 82 81 81 80 79 79 78 77 77 77 78 80 82 82 81 80 78 76 74 72 71 71 71 71 71 70 71 73 74 73 71 70 70 69 68 66 66 65 65 64 63 62 60 60 60 59
45 47 50 53 56 59 62 65 68 71 74 75 76 77 79 81 83 85 86 85 84 83 82 82 82 82 82 82 83 84 85 86 86 86 86 85 84 84 83 83 82 82 81 80 80 79 79 78 78 78 80 82 82 82 82 81 80 78 75 73 73 73 74 74 74 73 73 75 77 78 75 72 71 70 68 66 65 64 64 64 63 61 60 58 58 58
49 48 49 49 50 52 55 59 64 70 74 75 76 78 80 82 84 85 86 85 85 84 83 83 83 83 82 82 83 84 86 86 86 86 86 85 85 84 83 83 83 83 82 81 81 80 79 78 78 79 81 82 83 83 84 84 83 80 77 74 74 75 76 76 76 75 75 77 79 79 78 76 73 70 68 65 64 63 62 62 61 60 59 58 57 57
53 51 49 48 47 47 49 53 59 66 72 75 77 80 83 84 86 86 86 85 85 84 83 83 83 83 82 82 83 84 86 87 87 87 87 86 85 85 84 84 84 83 83 82 81 80 79 78 78 79 81 83 85 85 86 86 84 81 77 75 75 77 78 78 77 77 77 78 79 79 80 78 76 72 68 64 62 61 60 59 59 58 58 58 57 56
54 51 49 48 47 46 46 49 55 62 70 75 79 83 85 87 88 88 87 86 85 85 84 83 83 82 82 82 83 85 87 87 87 87 87 87 86 85 85 85 84 84 83 82 81 80 78 78 78 80 83 85 87 88 88 87 85 81 76 76 77 78 78 79 79 80 80 80 80 79 80 79 77 75 71 66 63 60 59 58 57 57 58 58 57 57
53 50 50 50 49 48 47 48 53 61 71 78 82 85 87 88 90 90 89 88 87 85 84 83 82 82 82 83 84 86 87 88 88 88 89 88 87 86 86 85 85 84 83 82 81 79 78 77 78 81 85 87 88 89 89 88 85 81 77 77 78 79 80 81 81 81 81 81 81 80 79 79 77 75 72 69 65 62 60 59 58 57 57 57 56 56
51 51 53 54 53 51 48 49 55 66 77 82 85 87 88 89 90 91 90 89 88 86 85 83 83 82 82 83 85 87 88 88 89 90 90 89 88 87 87 86 85 84 83 82 81 79 78 80 82 85 88 89 90 90 89 87 84 81 77 77 78 80 81 82 82 81 82 82 82 81 79 78 77 74 71 68 65 63 61 59 58 57 56 56 55 55
53 55 58 59 57 54 50 54 63 74 84 87 88 88 88 89 90 91 91 90 89 87 85 84 83 83 84 85 86 87 88 89 90 91 91 90 88 88 87 86 85 84 84 82 81 81 82 85 88 90 91 91 90 89 89 87 84 81 78 78 79 80 82 82 82 82 82 83 83 82 80 79 76 73 69 66 63 61 60 59 57 56 55 54 54 54
56 58 61 61 59 56 55 61 71 81 88 89 89 89 88 88 89 90 91 91 90 88 87 86 85 85 85 86 87 88 88 89 90 91 91 90 89 88 87 86 85 85 84 83 83 83 86 89 91 92 91 91 90 89 88 86 83 81 79 79 79 80 82 82 83 83 83 83 83 82 81 80 77 73 68 63 60 59 58 57 56 55 54 54 53 53
59 60 62 61 60 59 62 71 78 84 88 90 90 88 87 86 87 88 91 91 90 89 88 87 86 86 85 86 87 87 88 89 90 91 91 90 89 88 87 86 86 86 85 84 84 85 88 91 92 92 91 90 89 88 87 85 83 81 80 80 80 80 82 83 83 83 83 83 83 82 82 81 78 73 66 62 59 57 55 55 54 54 54 53 53 52
60 59 59 61 62 65 72 78 82 86 89 90 89 87 85 84 85 87 89 90 90 89 88 88 87 86 86 86 86 87 88 89 90 90 91 90 88 88 87 87 87 87 87 85 86 87 89 91 92 91 91 90 89 88 86 84 83 81 81 82 81 81 81 82 82 82 82 82 83 83 83 82 78 73 66 61 57 55 53 53 52 53 52 52 51 51
60 58 58 61 67 73 80 82 85 87 90 90 89 87 84 82 83 85 88 90 90 89 89 88 88 87 86 85 86 87 88 88 89 89 90 89 88 87 87 88 88 88 87 86 86 88 89 91 91 91 90 89 88 87 86 84 83 83 83 83 83 82 82 81 81 81 80 81 82 83 84 82 78 71 64 59 56 54 52 52 51 51 51 50 50 49
60 59 59 63 69 76 82 84 87 89 90 90 89 86 83 82 83 86 88 90 90 90 89 89 88 87 85 85 86 87 88 88 88 88 89 88 88 87 88 88 89 88 88 87 87 88 90 91 91 90 89 88 87 86 85 84 84 85 85 85 84 83 82 80 79 79 79 81 83 84 84 82 76 69 61 57 55 53 52 51 51 50 50 49 48 47
61 60 60 65 70 76 82 85 87 90 91 91 89 86 83 83 85 87 90 91 91 91 90 89 88 87 85 84 85 87 88 88 88 88 88 88 88 88 88 89 89 89 87 87 87 88 90 90 90 90 89 88 87 86 85 85 86 86 86 85 84 83 81 79 78 78 79 81 83 84 84 80 73 65 58 55 54 52 52 51 50 50 49 48 47 46
63 61 61 63 67 73 80 84 86 88 89 90 89 88 87 87 88 90 92 93 92 91 90 89 88 86 84 84 85 87 88 88 88 88 88 88 88 88 89 90 89 89 88 87 88 89 90 90 90 90 89 88 87 86 86 86 87 87 87 85 84 82 80 79 78 78 79 80 82 82 80 74 67 61 56 54 53 52 51 51 50 49 48 47 46 44
63 62 61 62 65 71 78 83 85 86 88 89 89 90 90 91 92 93 93 93 92 91 89 89 88 86 85 85 86 87 88 88 88 88 88 88 88 88 89 90 90 89 88 89 89 90 91 91 90 90 89 88 87 86 86 87 87 87 86 85 83 82 80 79 78 78 79 79 79 77 74 67 62 58 55 54 53 52 51 50 49 48 47 46 44 43
63 63 63 63 67 71 77 83 85 86 87 89 90 90 91 92 93 93 93 93 92 91 89 88 87 87 87 86 87 87 87 88 88 88 88 89 89 88 88 90 90 90 90 90 90 91 91 91 91 90 89 88 87 87 87 87 87 87 86 84 83 82 81 80 80 79 78 77 75 71 67 62 58 56 55 54 53 52 51 50 49 48 46 45 43 42
65 65 65 65 67 71 78 84 86 88 89 90 90 91 92 92 93 93 93 92 91 90 89 87 86 86 86 87 86 86 87 88 89 89 89 89 89 88 88 89 90 91 90 90 91 91 92 91 91 90 90 89 88 88 87 88 87 87 85 85 84 83 83 82 80 79 77 74 70 66 62 59 57 56 56 54 53 52 51 49 48 46 45 44 43 42
68 68 67 66 67 71 78 85 88 90 90 90 91 91 92 92 93 93 93 92 91 90 88 87 86 85 85 85 86 86 87 88 89 89 89 89 89 89 89 90 90 90 91 90 91 92 92 92 91 91 90 90 89 89 88 88 87 87 86 86 85 85 84 83 81 78 74 69 65 62 59 58 57 56 56 55 53 52 50 48 47 45 44 43 42 42
72 72 71 69 70 74 81 86 89 89 90 90 90 90 91 92 93 93 93 92 91 89 87 86 85 84 84 85 86 87 88 89 89 90 89 90 90 90 90 90 90 90 90 90 91 92 92 92 92 92 91 91 90 89 88 88 87 86 86 86 86 86 85 83 80 75 70 65 62 60 58 58 57 57 56 54 53 51 49 47 45 44 43 42 42 41
78 78 75 74 76 81 86 89 89 89 89 90 90 91 91 92 92 93 93 92 90 88 86 85 84 83 83 84 86 87 88 89 89 89 90 91 91 91 90 90 90 90 90 90 91 92 92 93 92 92 92 92 91 90 89 88 87 86 86 86 86 86 84 81 77 72 67 64 61 60 58 58 57 57 56 54 52 50 48 46 44 43 42 42 41 41
82 81 79 79 83 87 90 90 89 89 90 91 91 92 91 91 92 92 92 91 89 87 86 84 83 82 82 83 85 87 89 88 89 89 89 91 92 91 90 90 90 90 90 91 91 92 93 93 93 92 92 91 91 90 89 88 88 88 87 87 86 84 81 77 73 69 65 63 61 60 59 58 57 56 55 53 51 49 47 45 44 43 42 42 41 40
81 81 80 82 86 90 91 91 91 90 91 91 92 92 91 91 92 92 91 90 89 87 86 84 83 82 83 84 85 87 89 89 89 89 89 91 92 91 90 90 90 90 90 91 92 92 93 93 92 92 92 91 91 90 89 88 88 88 87 86 84 80 77 73 69 67 65 63 61 60 59 58 57 55 53 51 49 47 46 45 44 43 42 41 41 40
80 80 81 83 87 90 92 91 91 91 91 92 92 91 91 91 91 92 91 90 89 88 87 85 84 84 84 85 86 87 89 88 88 88 89 91 91 91 90 90 90 90 91 91 92 92 92 92 92 92 91 91 90 90 89 88 87 86 85 83 80 76 73 70 67 66 64 63 62 60 59 57 55 53 51 49 48 46 45 44 43 42 42 41 40 39
83 82 82 84 87 90 92 92 91 91 91 92 92 91 91 91 92 92 92 92 90 89 88 87 87 86 85 86 87 88 88 88 88 88 89 90 90 90 90 90 90 90 91 92 92 92 92 92 92 92 91 91 90 89 88 87 86 84 81 78 75 73 70 68 67 66 64 63 62 60 58 56 54 52 50 48 47 46 45 44 43 42 41 41 40 39
87 86 85 86 87 89 92 92 92 91 92 92 92 92 92 92 92 92 92 92 92 91 90 89 89 88 87 87 87 88 88 88 88 88 89 88 89 90 90 90 90 91 92 92 92 92 92 92 92 92 91 90 90 88 87 85 83 80 78 75 72 70 69 68 66 66 65 63 62 60 57 55 53 51 49 48 46 45 44 43 42 42 41 40 40 39
92 91 90 90 90 91 92 92 92 92 93 92 92 92 92 93 92 92 93 92 92 91 91 91 90 89 89 88 89 89 89 88 88 88 88 88 88 89 90 90 90 91 92 92 93 92 92 92 92 91 91 90 89 87 85 83 80 77 74 72 71 69 68 67 67 66 64 63 61 59 57 54 52 50 49 47 46 45 43 43 42 41 40 39 39 38
94 94 93 93 93 93 93 92 92 93 93 93 93 92 93 93 93 93 93 92 91 91 92 91 91 90 90 90 90 89 89 89 88 88 87 88 88 89 89 89 90 91 92 92 93 92 92 92 92 91 91 89 88 86 83 80 77 74 72 71 70 69 68 67 66 65 64 62 60 58 56 54 52 50 48 46 45 44 42 42 41 40 39 38 37 36
94 94 94 94 93 93 93 92 92 93 93 93 93 93 93 93 93 92 91 91 90 91 92 91 91 91 90 90 90 90 89 89 88 87 87 88 89 89 89 90 91 92 92 92 92 92 92 92 91 91 90 89 87 84 81 77 75 72 71 70 69 68 68 67 66 64 63 61 59 57 55 53 51 49 47 45 44 43 42 41 40 39 37 36 35 34
94 94 94 94 93 93 93 92 93 93 93 93 93 92 92 92 92 91 90 90 90 90 91 91 91 91 91 91 90 90 89 88 87 87 87 88 89 89 89 91 92 92 92 92 92 92 92 92 91 91 90 88 86 83 79 75 73 71 70 70 69 68 67 66 65 64 62 59 58 56 54 52 50 48 46 45 44 43 42 41 39 38 37 36 35 34
94 94 94 94 93 93 93 93 93 93 92 92 92 92 91 91 91 91 90 90 89 90 90 90 91 91 91 91 90 90 89 88 87 87 88 88 89 89 90 91 92 92 92 92 92 92 92 92 91 90 89 87 85 81 77 74 72 71 70 69 69 68 67 66 65 63 61 59 57 55 53 51 49 47 45 44 43 43 42 41 40 39 38 36 35 34
94 94 94 93 93 93 93 93 93 93 92 92 92 91 90 90 90 90 90 90 89 89 90 90 91 91 91 91 90 90 88 88 88 88 89 89 90 90 91 92 92 92 92 92 92 91 91 91 91 90 88 86 83 79 75 73 72 71 70 69 69 68 67 66 64 62 60 58 57 54 53 51 48 46 45 45 44 43 42 41 40 38 37 36 34 33
93 93 93 93 93 93 93 93 93 93 92 92 91 90 89 89 90 90 90 90 90 90 90 91 91 91 91 90 90 89 89 89 89 89 90 90 91 91 92 92 92 92 92 92 92 91 91 91 90 89 88 84 80 77 74 72 72 71 70 70 69 68 67 66 64 63 61 59 57 55 53 50 48 47 46 45 44 43 42 41 39 38 36 35 33 32
93 93 93 93 93 93 93 93 93 92 92 91 90 89 89 90 90 91 90 90 91 91 91 91 91 91 91 90 90 90 90 90 90 90 91 91 91 91 92 92 92 92 92 92 92 92 91 90 90 88 86 82 78 75 73 72 72 71 70 70 69 68 67 66 64 63 61 59 57 55 52 50 48 47 46 45 44 43 41 40 38 37 35 34 32 30
93 93 93 93 93 93 93 93 92 92 91 91 90 90 90 91 91 91 91 91 91 91 91 91 91 91 90 90 91 91 91 91 91 91 92 91 91 91 91 91 91 91 92 92 92 91 91 90 89 86 83 79 77 74 73 72 72 71 71 70 69 68 67 66 65 64 62 60 58 55 52 50 48 47 47 46 44 42 41 39 37 35 33 32 30 29
93 93 93 93 93 92 92 92 92 92 91 91 91 91 91 91 91 91 91 91 91 91 90 90 90 90 90 91 91 91 91 92 92 92 92 91 91 91 91 90 90 90 91 91 91 91 90 89 87 84 80 77 75 74 73 72 71 71 71 70 69 68 67 66 65 64 63 60 57 54 52 50 49 48 46 45 43 41 39 37 35 33 31 30 28 27
93 93 93 93 92 92 92 92 92 92 92 92 92 92 91 91 91 91 91 91 91 90 90 90 90 90 91 91 92 92 92 92 92 92 92 91 91 91 90 90 90 90 90 90 90 90 89 87 84 81 78 76 74 73 73 72 71 71 71 70 70 69 68 67 66 64 63 60 57 54 52 50 49 47 45 44 41 39 37 35 33 31 29 28 27 26
93 93 93 93 92 92 92 92 92 92 92 92 92 92 92 92 91 91 91 91 90 90 90 90 90 90 91 92 92 92 92 92 92 92 91 91 91 90 90 90 90 90 90 89 88 88 87 84 82 79 77 75 74 73 73 72 72 72 71 71 70 70 69 68 67 65 63 60 57 54 52 50 48 46 44 42 39 37 35 33 32 30 29 28 27 26
93 93 93 93 93 92 92 92 92 92 92 92 92 92 92 92 92 91 91 91 90 90 90 90 90 91 91 92 92 92 92 92 92 91 91 90 90 90 90 90 90 90 89 88 87 86 84 82 80 78 76 75 74 74 73 73 73 72 72 72 71 71 70 69 67 65 63 60 57 54 51 48 46 44 42 39 37 35 34 32 31 29 28 27 27 26
93 93 93 93 93 93 92 92 92 92 92 92 92 92 92 92 92 91 91 91 91 90 90 90 91 91 91 91 91 91 91 91 91 91 90 90 90 90 90 90 89 89 88 87 86 84 82 80 78 76 75 74 74 74 74 74 73 73 73 73 72 72 70 69 67 65 62 58 55 52 49 46 44 42 40 38 36 34 33 31 30 29 28 28 27 26
93 93 93 93 93 92 92 92 92 92 92 91 91 91 92 92 92 92 92 92 91 91 91 91 91 91 91 91 91 91 91 91 91 91 91 90 90 90 89 89 89 88 87 86 84 82 80 79 77 76 75 74 74 74 74 74 74 74 73 73 72 72 70 68 66 63 60 56 52 49 46 44 42 40 38 37 35 34 33 32 31 30 29 28 28 27
93 93 93 93 93 92 92 92 92 92 92 92 92 92 92 92 92 92 92 92 92 91 91 91 91 91 91 91 91 90 90 91 91 91 91 91 90 90 89 88 88 87 85 84 83 81 80 78 77 76 76 75 75 75 75 75 74 74 74 73 72 71 69 66 63 60 56 53 50 47 44 42 41 39 38 36 35 34 33 32 31 30 30 29 28 27
93 93 93 93 92 92 92 92 91 91 92 91 92 92 92 92 92 92 92 92 92 92 92 92 91 91 91 91 91 90 90 91 91 91 91 91 90 89 89 88 87 85 84 82 81 80 79 78 77 77 76 76 76 76 76 75 74 73 73 72 71 69 67 63 60 56 53 51 48 45 43 42 40 39 38 37 36 34 33 32 31 31 30 29 28 28
93 93 92 92 92 92 91 91 91 92 92 92 92 92 92 92 92 92 92 92 92 92 92 92 91 91 91 91 90 90 90 90 91 91 91 90 90 89 88 87 85 84 82 81 80 80 79 78 78 77 77 76 76 76 75 74 73 72 71 70 68 66 64 60 57 54 52 49 47 45 43 41 40 39 38 37 36 35 34 33 32 31 30 29 29 28
92 92 92 92 92 91 91 92 92 92 92 92 92 92 92 92 92 92 92 92 92 92 92 92 91 91 91 91 90 90 89 90 90 90 90 90 89 88 86 85 84 83 82 81 80 80 79 78 78 77 76 76 75 74 74 73 71 70 69 68 66 64 62 58 55 53 51 49 47 45 43 42 41 40 39 38 37 35 34 33 32 31 30 30 29 29
92 92 92 92 92 92 92 92 92 92 92 92 92 92 92 92 92 92 92 92 92 92 92 91 91 91 91 91 90 90 90 90 90 90 90 89 88 87 85 84 83 82 81 81 80 79 78 77 77 76 75 74 74 73 72 71 70 69 68 66 64 62 59 57 54 52 51 48 47 45 43 42 41 41 40 38 37 36 35 34 33 32 31 30 30 30
92 91 91 92 92 92 92 92 92 92 92 92 92 92 92 92 92 92 92 92 92 92 92 92 92 92 92 91 91 90 90 90 90 89 88 87 86 85 83 82 81 81 80 79 78 78 77 76 75 74 74 73 73 72 71 69 68 67 66 64 62 60 57 55 53 52 50 48 46 45 44 43 42 41 40 40 39 38 37 36 34 34 33 32 32 31
92 91 92 91 91 91 91 91 92 92 92 92 92 92 92 92 92 92 92 92 92 92 92 92 92 92 92 91 91 90 90 90 89 88 87 85 84 82 81 80 79 79 78 77 77 76 75 74 74 73 73 73 72 72 70 68 67 65 64 62 60 58 56 54 52 51 49 48 47 45 45 44 44 43 42 42 41 40 39 38 37 36 36 35 34 34
91 91 91 91 91 91 91 91 91 91 92 92 92 92 92 92 92 92 92 92 92 92 92 92 92 92 91 91 90 89 89 88 87 85 84 83 82 80 79 79 78 78 77 77 76 75 75 74 74 73 72 72 71 71 69 67 65 64 62 60 58 57 55 53 52 50 49 49 48 47 47 46 46 46 45 44 44 43 42 41 41 40 39 38 38 37
92 91 91 91 91 91 91 91 91 91 91 91 91 92 92 92 92 92 92 92 92 92 91 91 91 91 90 89 89 88 87 86 85 84 83 82 81 80 79 79 78 78 78 77 77 76 75 74 74 73 72 71 70 69 68 66 64 62 60 59 57 55 54 53 52 52 51 51 51 50 50 49 49 48 48 47 46 46 45 44 44 44 43 42 41 40
91 91 91 91 91 91 91 91 91 91 91 91 91 91 91 91 92 92 92 91 91 91 91 91 91 90 90 89 88 87 86 85 84 83 83 82 82 81 81 80 80 80 79 78 77 76 75 74 73 72 71 70 68 67 66 64 63 61 60 59 57 56 56 55 55 55 54 54 54 53 53 52 52 51 50 49 48 48 47 47 46 46 46 45 44 43